This demonstration page uses our WeatherBlox Daily Observations layout. Learn more.

Left ArrowRight Arrow

39.01783, -85.05884

Hourly Observations for November 2, 2020

Temp ( °F °C ) Dew Point ( °F °C ) Humidity (%) Winds ( mph kmh ) Pressure ( in mb ) Visibility ( mi km ) Precip ( " mm )
12:52 am 00:52 Clear 31 -0.6 20 -6.7 64 64 W 10 17 30.36 1028 10 16.0934 0 0
1:52 am 01:52 Clear 32 0 20 -6.7 61 61 WNW 12 19 30.36 1028 10 16.0934 0 0
2:52 am 02:52 Clear 30 -1.1 20 -6.7 66 66 WNW 8 13 30.37 1028 10 16.0934 0 0
3:52 am 03:52 Clear 29 -1.7 20 -6.7 69 69 W 9 15 30.39 1029 10 16.0934 0 0
4:52 am 04:52 Mostly Clear 27 -2.8 19 -7.2 72 72 Calm 30.39 1029 10 16.0934 0 0
5:52 am 05:52 Partly Cloudy 27 -2.8 20 -6.7 75 75 S 3 6 30.41 1030 10 16.0934 0 0
6:52 am 06:52 Mostly Cloudy 27 -2.8 19 -7.2 72 72 W 6 9 30.43 1030 10 16.0934 0 0
7:52 am 07:52 Partly Cloudy 29 -1.7 21 -6.1 72 72 WSW 5 7 30.43 1031 10 16.0934 0 0
8:52 am 08:52 Mostly Sunny 32 0 21 -6.1 64 64 W 9 15 30.44 1031 10 16.0934 0 0
9:52 am 09:52 Sunny 36 2.2 21 -6.1 55 55 SW 6 9 30.44 1031 10 16.0934 0 0
10:52 am 10:52 Sunny 41 5 19 -7.2 41 41 WSW 12 19 30.42 1030 10 16.0934 0 0
11:52 am 11:52 Sunny 44 6.7 18 -7.8 35 35 W 12 19 30.39 1029 10 16.0934 0 0
12:52 pm 12:52 Sunny 45 7.2 16 -8.9 31 31 WSW 12 19 30.36 1028 10 16.0934 0 0
1:52 pm 13:52 Mostly Sunny 47 8.3 15 -9.4 28 28 WSW 10 17 30.32 1027 10 16.0934 0 0
2:52 pm 14:52 Partly Cloudy 50 10 16 -8.9 26 26 WSW 9 15 30.29 1026 10 16.0934 0 0
3:52 pm 15:52 Partly Cloudy 49 9.4 16 -8.9 27 27 WSW 13 20 30.29 1026 10 16.0934 0 0
4:52 pm 16:52 Mostly Sunny 47 8.3 14 -10 26 26 WSW 8 13 30.28 1025 10 16.0934 0 0
5:52 pm 17:52 Partly Cloudy 44 6.7 14 -10 30 30 WSW 6 9 30.27 1025 10 16.0934 0 0
6:52 pm 18:52 Mostly Clear 42 5.6 14 -10 32 32 SW 9 15 30.25 1025 10 16.0934 0 0
7:52 pm 19:52 Mostly Cloudy 41 5 16 -8.9 36 36 SSW 8 13 30.25 1024 10 16.0934 0 0
8:52 pm 20:52 Mostly Cloudy 40 4.4 17 -8.3 40 40 SW 8 13 30.24 1024 10 16.0934 0 0
9:52 pm 21:52 Mostly Clear 41 5 17 -8.3 38 38 SW 12 19 30.23 1024 10 16.0934 0 0
10:52 pm 22:52 Mostly Clear 40 4.4 18 -7.8 41 41 SW 7 11 30.22 1024 10 16.0934 0 0
11:52 pm 23:52 Clear 39 3.9 19 -7.2 45 45 SW 7 11 30.22 1023 10 16.0934 0 0

Powered by AerisWeather